Новоподрезково

Россия / Московская область     55°56′30″N   37°21′18″E
темп.,
°C
ветер,
м/с
пор.,
м/с
влажн.,
%
обл.,
%
осадки,
мм/ч
давл.,
гПа
погр.,
м
11 апреля, вс
вс1100:00+3ююз311730 0.0 1025223
03:00+2ююз311785 0.0 1025205
06:00+1юз37835 0.0 1027125
09:00+7юз24643 0.0 1028296
12:00+11ююз35502 0.0 1029829
15:00+14юз34440 0.0 10291362
18:00+13ююз22552 0.0 103045
21:00+9ююв22640 0.0 103110
12 апреля, пн
пн1200:00+7юв22690 0.0 103313
03:00+5юв23730 0.0 103429
06:00+4вюв34800 0.0 103461
09:00+8вюв4964100 0.0 1033399
12:00+12вюв6946100 0.0 1031838
15:00+13вюв6846100 0.0 1030966
18:00+10вюв5963100 0.0 1028577
21:00+8вюв4976100 0.0 1028326
13 апреля, вт
вт1300:00+6вюв3892100 0.0 1027182
03:00+6вюв369781 0.0 1026100
06:00+6юв3795100 0.0 1025135
09:00+10ююв3975100 0.0 1024250
12:00+14ю4764100 0.0 1023521
15:00+16ю3560100 0.0 1023526
18:00+15вюв2264100 0.0 102228
21:00+12ююв3666100 0.0 102280
14 апреля, ср
ср1400:00+10ююв347076 0.0 102258
03:00+9ююв347635 0.0 102167
06:00+8ююв237981 0.0 102134
09:00+13ююв3662100 0.0 1021237
12:00+17ююв4652100 0.0 1020595
15:00+18ююв4644100 0.0 10191299
18:00+17ююв2345100 0.0 101955
21:00+12ююв225190 0.0 101912
15 апреля, чт
чт1500:00+10ююв225893 0.0 101910
03:00+9ссв2264100 0.0 101810
06:00+8св2273100 0.0 101837
09:00+11ссв336391 0.0 1018261
12:00+14ссв4459100 0.0 1018629
15:00+14ссв5658100 0.0 1017946
18:00+10ссв71072100 0.0 1018664
21:00+6ссв71383100 0.0 1019606